THAICOM 8

Last updated on Wed Sep 17 2025 00:02:49 GMT+0000 (Coordinated Universal Time)

1 41552U 16031A 25259.59933208 -.00000141 00000+0 00000+0 0 9995 2 41552 0.0765 31.4513 0000567 128.5908 130.0383 1.00271519 33971
UTC large
Height (km)
Speed (km/s)
/
Latitude / Longitude
Inclination (degrees)
Orbital Period (minutes)
Azimuth
Elevation
Range (km)
Doppler Factor

Next 0 passes for location: London (51.5072 / 0.1276)

Sorry there are no passes over London.